Home > Weather > Cardiff > Past weeks

Flag for United Kingdom Weather for the Past 2 Weeks in Cardiff, Wales, United Kingdom

Now
39 °F

Light rain. Low clouds.


Feels Like: 29 °F
Forecast: 37 / 40 °F
Wind: 20 mph from Northeast

Location: Wales Airport

Current Time: Feb 13, 2016 at 8:08:19 AM

Latest Report: Feb 13, 2016 at 7:20 AM


Visibility: 4 mi

Pressure: 29.00 "Hg

Humidity: 93%

Dew point: 37 °F

Location of CardiffLocation

Historic Weather in Cardiff — Graph

°F

Cardiff Temperature Yesterday

Maximum temperature yesterday: 45 °F (at 12:50 PM)
Minimum temperature yesterday: 37 °F (at 12:50 AM)
Average temperature yesterday: 41 °F

High & Low Weather Summary for the Past Weeks

 TemperatureHumidityPressure
High54 °F (Jan 29, 12:20 PM)100% (Jan 30, 12:20 AM)30.42 "Hg (Jan 30, 12:20 AM)
Low30 °F (Feb 11, 5:20 AM)61% (Jan 30, 1:50 PM)28.97 "Hg (Feb 8, 5:50 AM)
Average45 °F86%29.67 "Hg
* Reported Jan 29 6:20 AM — Feb 13 6:50 AM, Cardiff, Weather by CustomWeather, © 2016

Note: Actual official high and low records may vary slightly from our data, if they occured in-between our weather recording intervals... More about our weather records

Advertising

Cardiff Weather History for the Previous 24 Hours

 ConditionsComfort  
Time TempWeatherWind HumidityBarometerVisibility
6:50 AM
Sat, Feb 13
39 °FLight rain. Low clouds.16 mph93%29.00 "Hg3 mi
6:20 AM39 °FLight rain. Mostly cloudy.20 mph93%29.00 "Hg4 mi
5:50 AM39 °FLight rain. Low clouds.18 mph93%29.03 "Hg3 mi
5:20 AM39 °FLight rain. Mostly cloudy.17 mph93%29.06 "Hg4 mi
4:50 AM39 °FRain. Mostly cloudy.16 mph93%29.06 "Hg3 mi
4:20 AM39 °FLight rain. Mostly cloudy.16 mph93%29.09 "Hg4 mi
3:50 AM41 °FLight rain. Mostly cloudy.13 mph87%29.12 "HgN/A
3:20 AM41 °FMostly cloudy.14 mph87%29.15 "Hg6 mi
2:20 AM41 °FLight rain. Low clouds.15 mph87%29.18 "Hg6 mi
1:20 AM41 °FMostly cloudy.13 mph87%29.21 "HgN/A
12:50 AM41 °FMostly cloudy.13 mph87%29.24 "HgN/A
12:20 AM41 °FMostly cloudy.16 mph87%29.27 "HgN/A
11:50 PM
Fri, Feb 12
41 °FMostly cloudy.16 mph87%29.27 "HgN/A
11:20 PM41 °FLow clouds.14 mph87%29.30 "HgN/A
10:50 PM41 °FLow clouds.15 mph87%29.30 "HgN/A
9:50 PM41 °FLow clouds.12 mph93%29.33 "HgN/A
9:20 PM41 °FOvercast.13 mph93%29.33 "HgN/A
8:50 PM41 °FPassing clouds.14 mph93%29.36 "HgN/A
8:20 PM41 °FMostly cloudy.12 mph93%29.36 "HgN/A
7:50 PM43 °FMostly cloudy.13 mph87%29.36 "HgN/A
7:20 PM43 °FOvercast.12 mph87%29.36 "HgN/A
6:50 PM43 °FPassing clouds.9 mph81%29.36 "HgN/A
6:20 PM43 °FPassing clouds.12 mph81%29.36 "HgN/A
5:50 PM43 °FMostly cloudy.10 mph81%29.36 "HgN/A
5:20 PM43 °FMostly cloudy.10 mph81%29.36 "HgN/A
4:50 PM45 °FMostly cloudy.10 mph76%29.33 "HgN/A
4:20 PM45 °FOvercast.9 mph76%29.33 "HgN/A
3:50 PM45 °FMostly cloudy.9 mph81%29.33 "HgN/A
3:20 PM45 °FMostly cloudy.9 mph81%29.33 "HgN/A
2:50 PM45 °FMostly cloudy.9 mph81%29.30 "HgN/A
2:20 PM45 °FMostly cloudy.10 mph81%29.30 "HgN/A
1:50 PM45 °FMostly cloudy.10 mph81%29.30 "HgN/A
1:20 PM45 °FScattered clouds.12 mph81%29.30 "HgN/A
12:50 PM45 °FScattered clouds.13 mph81%29.30 "HgN/A
12:20 PM43 °FPartly sunny.13 mph87%29.30 "HgN/A
11:50 AM43 °FBroken clouds.13 mph87%29.30 "HgN/A
11:20 AM43 °FPassing clouds.15 mph87%29.30 "HgN/A
10:50 AM43 °FPassing clouds.14 mph87%29.30 "HgN/A
10:20 AM41 °FScattered clouds.12 mph93%29.30 "HgN/A
9:50 AM41 °FPassing clouds.13 mph93%29.30 "HgN/A
9:20 AM41 °FMore clouds than sun.13 mph87%29.27 "HgN/A
8:50 AM39 °FBroken clouds.10 mph93%29.27 "HgN/A
8:20 AM39 °FScattered clouds.10 mph93%29.27 "HgN/A
Weather by CustomWeather, © 2016

See weather overviewHow to use our weather pages